Dewpoint
71 71 71 71 73 73 73 75 74 73 73 73 73 73 72 70 73 72 71 73 73 71 71 71 70 70 72 73 71 72 72 72 72 72 70 70 72 75 76 75 75 75 75 74 74 74 73 73 73 73 74 74 74 73 73 73 72 72 73 72 72 72 72 72 72 72 72 72 72 72 72 72 72 72 72 72 72 72 72 72 72 71 71 71 71
70 71 71 72 73 75 75 73 72 73 72 72 73 72 74 71 73 73 71 72 73 72 72 69 67 68 69 68 69 68 70 69 71 70 71 72 72 76 75 75 75 75 74 74 74 73 73 74 73 73 74 74 74 74 74 74 73 72 73 73 72 72 72 72 72 72 72 72 72 72 72 72 72 72 72 72 72 72 72 72 72 72 72 72 71
71 74 72 72 74 75 74 73 72 72 76 74 73 73 73 73 75 75 73 73 71 72 70 71 70 69 69 69 68 69 69 69 68 68 68 71 71 74 75 75 75 75 74 75 74 73 73 73 73 73 74 73 73 73 74 74 74 73 73 73 73 72 72 72 72 72 72 72 72 72 72 72 72 72 72 72 72 73 73 73 72 73 73 72 72
74 75 73 75 75 73 73 73 74 74 73 73 74 74 75 74 74 75 75 74 72 72 72 68 64 62 65 64 67 68 68 68 66 66 69 70 70 72 75 75 76 75 75 75 74 74 74 74 73 74 74 74 74 73 73 74 74 73 73 73 73 72 72 72 72 72 72 72 72 72 72 72 72 72 72 72 73 73 73 73 73 72 73 73 73
76 75 74 73 74 75 74 74 74 74 73 74 75 75 73 74 75 74 72 71 67 66 65 63 62 62 62 61 63 64 69 69 70 69 67 69 70 70 71 75 75 75 75 75 75 74 75 74 74 74 74 74 74 73 73 73 74 74 73 73 73 72 72 71 72 72 72 72 72 72 72 73 73 73 73 73 73 73 73 73 73 73 73 73 73
77 77 74 73 75 74 74 74 73 74 75 75 74 74 75 74 70 68 67 67 65 66 63 64 61 62 64 64 65 68 70 68 68 68 69 68 66 68 65 65 69 75 75 75 75 75 75 75 75 74 74 74 75 74 73 73 74 73 73 72 72 72 71 72 72 72 72 72 73 72 72 72 73 73 73 73 73 73 73 73 73 73 73 73 73
78 77 76 74 73 74 73 74 75 74 75 75 74 73 73 70 67 68 67 65 64 65 63 64 63 65 66 68 68 69 70 69 69 69 68 69 70 65 66 66 65 67 71 74 75 75 75 75 75 75 74 74 74 74 74 73 73 73 73 72 72 72 72 71 72 72 72 72 73 73 73 72 73 73 73 73 73 73 73 73 73 73 73 73 74
78 78 76 74 72 72 72 75 74 75 76 75 75 72 69 68 67 66 65 64 65 63 64 65 65 65 67 68 69 70 70 70 70 70 66 68 67 67 68 70 71 70 71 70 74 75 75 75 75 75 74 74 74 74 74 73 73 73 72 72 72 72 72 71 71 72 73 73 73 73 73 74 74 74 74 74 73 73 73 73 74 74 74 74 74
79 78 77 75 72 73 74 75 74 74 75 73 68 67 67 62 65 66 65 66 63 62 63 65 64 65 65 66 67 69 69 70 70 67 67 67 67 67 69 71 71 67 70 69 73 74 75 75 75 74 74 74 74 74 74 74 73 73 72 72 72 72 72 72 72 72 72 72 73 73 73 74 73 73 74 74 74 74 74 73 74 74 74 74 74
79 79 77 76 74 74 75 75 75 74 70 68 66 66 67 65 65 66 65 65 62 62 62 61 61 63 64 63 65 65 66 67 67 66 66 66 68 70 70 69 68 70 69 70 73 73 73 74 74 74 74 74 74 74 74 74 74 73 73 72 72 72 72 73 73 73 72 72 73 73 74 74 73 73 73 73 73 74 74 74 74 74 74 74 74
79 77 78 76 75 74 75 75 73 72 70 68 66 66 66 66 64 65 66 66 65 65 65 65 64 64 63 64 66 68 69 66 67 66 66 64 63 67 69 69 69 69 71 70 69 73 74 73 73 73 73 74 74 74 73 73 73 72 72 73 73 73 73 73 73 73 73 73 73 72 73 73 73 73 72 73 73 73 73 74 74 74 74 74 74
78 78 77 76 75 76 76 74 70 69 69 66 65 63 66 64 64 66 67 67 67 66 67 66 66 66 65 66 67 68 69 68 67 65 66 65 66 66 66 68 69 68 68 69 68 67 69 71 72 74 74 73 74 73 73 73 73 73 73 73 73 73 73 73 73 73 73 73 73 73 73 73 73 73 73 73 73 73 74 74 73 74 74 74 74
79 78 77 76 77 76 73 71 70 69 69 68 66 66 66 66 66 67 67 68 67 67 67 67 67 66 68 67 66 66 65 66 65 63 62 61 63 65 64 65 65 65 67 67 67 67 65 66 66 68 73 75 74 72 72 73 73 73 73 72 72 73 73 73 73 73 73 73 73 73 73 73 73 73 73 73 73 73 73 73 74 73 74 74 74
78 78 77 77 76 75 72 70 69 69 70 69 67 66 66 65 67 68 68 67 67 65 66 67 65 63 62 61 62 64 65 63 62 61 60 61 62 64 65 62 62 64 65 65 66 64 64 65 68 67 68 69 72 74 74 73 73 73 72 71 71 71 72 73 73 73 73 74 73 73 73 73 73 73 73 73 73 73 73 73 73 73 73 73 74
78 78 78 78 76 72 71 71 70 69 70 70 69 66 66 64 66 68 66 67 66 66 67 65 62 62 63 63 59 58 66 64 61 61 59 59 59 60 61 60 62 64 65 64 64 65 63 65 67 68 69 69 68 70 72 70 72 72 72 72 71 71 72 72 72 72 72 72 72 73 73 73 73 73 73 72 72 72 72 72 73 73 73 73 74
77 77 77 77 75 72 71 70 71 70 70 70 69 65 66 65 66 66 66 63 61 62 65 66 65 63 60 57 55 52 58 60 62 60 54 55 55 58 58 57 61 63 64 63 60 63 64 65 66 66 68 69 68 67 69 69 71 71 70 70 69 69 70 71 72 72 72 72 72 72 72 73 73 73 73 72 72 73 72 72 72 72 72 73 74
75 76 76 73 72 72 71 70 70 71 70 70 68 63 65 64 65 64 66 63 61 60 64 64 66 66 62 62 60 58 59 55 50 62 59 55 54 56 58 57 58 61 59 60 60 62 63 63 65 66 66 66 65 65 65 66 69 70 68 67 67 66 67 68 69 69 70 70 71 71 71 72 72 73 73 73 72 72 72 72 72 72 72 73 73
73 72 72 71 72 72 71 70 70 71 70 67 67 65 65 63 65 65 64 65 65 60 60 66 66 67 66 63 63 61 60 60 57 59 62 57 56 54 57 55 60 59 60 61 58 61 61 62 63 64 63 62 62 61 61 63 66 62 66 66 65 64 65 66 67 68 68 68 68 69 69 70 71 71 72 72 73 72 72 72 72 72 72 72 73
71 71 71 71 71 72 72 71 70 70 69 68 67 64 62 64 65 64 65 67 63 63 59 61 66 66 65 64 63 64 61 62 61 56 59 61 58 53 54 52 53 58 58 54 56 59 56 60 59 59 60 61 60 61 63 63 62 63 64 64 63 63 63 65 66 66 65 66 66 67 68 68 68 69 70 72 72 72 72 72 72 72 72 73 73
70 72 71 71 72 71 72 71 69 67 67 67 64 63 64 65 65 67 67 65 65 63 62 62 62 63 63 63 63 64 64 63 63 62 58 56 61 56 57 55 53 48 50 49 49 52 53 60 58 59 59 59 59 59 62 62 63 62 62 63 63 63 63 63 64 65 64 65 65 66 66 67 67 67 68 69 70 72 72 72 73 73 73 72 72
72 71 72 71 71 71 71 69 68 67 67 64 63 64 66 66 67 67 66 66 65 66 64 64 63 60 63 64 63 63 62 61 62 64 59 59 55 54 55 53 55 57 55 52 51 51 51 55 53 54 59 60 60 58 59 61 62 63 59 64 62 63 62 62 63 64 63 64 64 65 65 65 66 67 67 67 68 68 70 71 72 72 72 73 73
72 72 71 71 70 70 68 67 66 64 65 64 66 65 66 67 66 67 66 65 66 65 64 64 63 64 63 63 63 62 62 62 61 60 58 59 57 53 52 52 57 59 55 55 58 58 53 53 55 55 56 59 59 58 59 61 61 59 61 63 62 63 62 62 62 62 62 63 63 64 64 65 65 65 65 66 66 67 68 68 69 69 71 72 73
68 70 69 69 70 69 65 66 67 67 67 66 66 64 64 65 66 67 67 67 66 65 64 66 66 65 64 63 63 59 61 59 58 56 59 59 56 52 51 51 54 55 58 58 60 55 57 56 53 51 58 57 59 58 60 59 60 57 62 64 64 64 64 63 62 61 62 62 62 63 63 64 64 64 64 64 65 66 66 67 67 68 68 69 70
70 68 68 66 69 68 67 66 67 67 67 67 66 65 63 65 66 67 67 67 67 67 66 65 65 65 64 61 62 60 62 60 58 60 60 60 60 59 57 57 57 57 57 61 59 59 55 52 55 56 55 55 57 59 58 60 62 64 66 66 66 65 65 64 64 63 62 62 63 63 63 64 64 63 63 63 64 64 64 65 66 66 67 68 68
69 68 68 68 68 69 68 66 67 67 69 68 66 67 67 64 65 65 66 67 67 67 66 66 64 63 61 60 59 61 60 61 60 59 59 61 61 60 57 57 58 55 57 59 59 58 59 57 55 55 59 61 58 59 61 59 57 64 61 63 68 67 67 65 64 64 63 63 63 63 63 63 63 63 63 63 63 63 63 64 64 64 65 65 66
69 69 68 68 68 69 69 67 69 68 68 69 67 67 68 66 65 65 65 67 66 66 66 64 65 65 63 61 61 56 59 59 59 60 59 58 58 58 59 59 58 58 58 59 60 59 59 60 57 59 59 60 61 61 62 61 58 69 66 60 59 65 67 66 66 65 65 64 64 64 64 63 63 63 63 63 63 63 62 63 63 63 63 63 64
69 70 70 68 68 69 68 67 68 69 69 68 66 66 67 66 66 66 66 66 67 66 65 64 64 64 63 64 64 60 60 60 58 59 60 59 59 60 60 59 58 54 55 59 59 57 55 59 57 57 65 64 61 62 62 61 63 67 66 61 61 64 67 66 66 67 66 65 65 65 64 64 64 64 64 63 63 63 63 63 62 63 63 62 63
70 70 69 68 68 68 68 67 68 68 68 68 68 66 66 66 67 66 66 65 66 66 66 65 64 64 63 65 65 61 62 60 61 60 60 61 61 62 61 61 59 55 56 55 55 56 56 57 60 61 61 59 59 61 62 61 59 63 64 60 61 64 67 66 66 66 66 66 67 66 65 64 65 64 64 64 63 63 63 62 63 63 62 63 62
69 69 70 69 68 68 68 66 68 68 68 69 67 67 66 66 66 65 65 64 66 66 64 65 65 61 63 64 63 64 63 64 63 63 63 64 63 63 62 61 60 59 57 56 57 54 55 51 53 62 61 61 62 60 60 61 62 61 62 61 62 63 63 66 66 65 65 65 65 64 65 65 65 65 64 64 64 63 63 63 63 63 62 62 62
68 68 69 68 68 68 68 68 68 68 67 66 68 68 67 67 66 66 65 66 66 66 66 65 65 64 63 62 62 61 63 63 62 62 64 65 64 64 64 63 63 61 60 58 58 58 57 58 54 58 64 61 60 61 61 61 63 61 61 62 61 62 63 64 66 65 65 65 64 63 64 64 64 65 64 64 64 64 63 63 63 63 63 63 63
70 70 69 69 68 68 68 68 68 68 67 67 67 67 67 66 66 65 66 67 66 66 67 65 64 64 64 63 64 62 63 63 63 62 63 63 63 64 64 64 64 63 62 60 58 60 59 58 58 57 59 62 59 60 60 61 63 61 61 62 63 64 66 65 65 65 64 64 63 63 63 62 63 63 63 63 63 63 63 63 63 63 63 63 63
70 69 69 68 68 67 65 66 66 67 67 66 67 68 68 68 66 64 64 66 65 65 64 63 63 63 63 63 63 64 63 64 65 64 64 64 64 64 64 64 65 66 66 64 61 60 61 58 59 60 60 61 62 61 62 62 62 67 63 64 65 66 64 64 65 65 64 63 63 63 62 62 62 63 63 62 63 63 63 64 63 63 63 63 63
70 69 69 68 68 67 66 67 67 67 68 68 68 69 69 69 69 68 66 66 65 65 65 64 63 63 64 63 64 64 64 64 64 63 62 63 64 65 66 66 65 64 64 63 62 62 62 63 61 59 60 62 60 62 62 61 62 62 64 64 64 63 63 63 63 64 64 63 63 63 62 62 62 62 62 62 63 63 64 64 63 62 63 62 62
71 69 69 66 67 67 66 67 67 66 69 69 66 67 67 67 68 66 65 66 66 66 65 64 64 64 64 64 64 64 65 64 64 63 63 61 62 61 64 65 65 65 66 65 64 63 61 63 61 62 60 60 60 62 61 61 61 62 61 62 62 64 63 63 62 61 63 63 63 62 62 62 62 62 61 62 62 62 62 62 62 61 61 61 61
72 71 68 66 68 68 68 68 67 68 68 68 67 67 67 67 67 65 64 65 65 65 64 64 64 64 64 64 63 63 63 63 64 63 62 63 63 62 61 62 62 62 63 64 64 62 61 61 61 60 61 61 60 60 61 61 63 63 62 62 62 62 63 62 61 61 62 62 62 62 61 61 61 61 61 61 61 61 60 60 60 60 59 59 59
71 70 68 67 67 69 67 69 67 66 67 67 67 67 67 66 67 66 65 65 65 64 63 63 63 63 63 63 63 62 63 63 63 63 63 63 64 63 62 63 63 63 65 66 65 64 61 61 62 61 62 62 62 62 61 61 60 62 61 61 62 62 62 62 62 61 61 62 62 62 61 61 60 60 60 60 60 59 58 58 58 58 58 58 58
71 69 68 66 68 69 67 67 67 67 67 67 67 65 65 66 66 65 65 65 64 64 64 64 64 64 64 63 62 62 63 62 62 61 62 63 62 62 61 62 63 63 64 65 65 64 64 63 63 63 63 63 63 62 62 61 61 61 61 61 60 61 61 59 59 59 60 60 60 60 61 61 61 60 60 60 60 59 59 58 58 58 57 57 57
70 68 67 65 68 69 68 68 68 67 67 67 68 67 65 66 67 65 65 64 63 64 64 64 64 64 64 64 63 63 62 62 62 62 63 62 62 62 62 63 63 64 65 65 65 65 64 63 63 62 64 61 62 62 64 64 61 59 60 61 61 60 61 60 58 57 58 57 57 59 62 61 60 60 60 60 60 60 59 58 58 57 57 56 55
69 67 65 66 69 69 68 67 65 66 65 67 68 68 67 67 67 66 64 64 64 64 64 63 62 62 62 63 64 63 63 63 62 63 62 62 62 63 63 63 62 64 64 64 64 64 64 64 63 62 61 62 63 62 63 64 62 61 59 59 60 61 62 60 59 59 59 59 60 60 59 58 59 59 57 59 60 60 60 59 58 57 56 56 54
67 66 65 66 68 68 66 65 65 65 66 67 68 68 68 67 66 64 65 65 64 64 64 63 63 60 60 61 59 60 62 63 63 63 63 64 65 65 66 65 63 62 62 63 63 63 63 63 61 61 63 64 62 62 64 63 63 62 62 60 59 59 60 62 62 62 60 60 59 57 59 60 60 60 58 58 58 60 60 59 60 59 58 56 55
68 66 66 67 67 65 66 66 66 66 66 66 66 67 66 66 65 65 66 66 66 64 64 63 63 61 62 61 59 59 61 64 67 66 65 66 64 63 63 63 63 62 62 61 61 60 61 62 62 61 61 61 61 62 60 61 60 60 60 60 59 60 61 60 62 62 60 59 59 57 58 58 57 58 58 59 62 61 59 60 59 61 60 57 56
69 68 68 65 64 64 65 65 65 65 66 65 65 64 66 67 67 65 65 66 66 65 65 64 61 60 61 61 62 64 68 68 68 68 67 66 66 65 65 64 63 63 62 61 61 60 59 59 59 60 59 58 57 59 57 57 61 62 62 63 62 61 61 60 59 61 60 59 57 59 59 59 58 58 59 58 57 60 57 57 58 57 57 57 58
70 69 66 64 63 62 64 65 66 66 65 66 62 62 63 65 66 66 65 65 66 67 65 65 63 63 62 62 63 64 68 67 66 67 68 66 65 64 63 63 64 65 62 61 60 60 60 59 58 58 57 57 57 58 58 58 60 62 63 62 61 58 57 56 56 58 61 61 60 58 59 60 60 59 59 58 58 58 57 56 58 58 57 56 56
71 67 65 65 63 64 65 63 62 62 62 64 61 61 62 62 65 66 64 63 63 64 65 63 63 63 63 62 61 63 63 65 68 67 67 65 63 63 63 63 62 61 62 62 60 60 61 60 59 59 58 58 58 59 59 57 58 59 60 59 59 58 58 57 57 56 59 60 59 58 58 60 60 59 58 58 58 58 56 57 57 57 56 55 55
70 68 67 66 65 62 62 63 61 61 64 63 60 60 61 61 61 64 62 62 62 62 63 64 64 65 65 65 64 65 67 66 66 67 68 68 65 63 62 63 62 61 60 59 60 63 62 60 59 59 60 60 59 60 61 62 62 61 60 58 58 58 58 56 56 55 58 60 58 57 55 56 56 56 54 57 55 56 54 55 55 56 57 56 56
70 66 65 63 61 64 64 63 63 63 66 61 59 59 59 59 60 62 62 62 62 62 63 63 63 65 67 67 67 65 67 67 68 67 67 67 66 66 66 66 65 64 61 58 58 58 60 61 61 59 61 62 61 63 63 63 62 59 58 57 58 58 58 57 58 57 58 57 55 55 55 54 56 54 55 56 52 55 56 56 54 54 55 55 55
70 68 65 64 63 63 63 64 62 61 65 59 58 58 57 57 59 61 63 63 63 63 63 63 65 64 66 66 67 67 69 68 68 67 66 65 65 65 63 61 59 59 58 56 59 60 62 61 61 62 62 62 61 62 62 61 60 59 59 59 58 58 57 57 55 56 56 56 56 55 54 55 56 52 51 50 50 50 51 52 52 53 53 53 53
70 68 65 62 61 63 64 62 63 64 64 58 58 57 57 57 59 64 64 64 63 63 64 64 64 67 67 68 69 68 68 67 67 66 66 66 65 64 63 62 61 59 56 58 58 57 58 57 58 57 56 58 57 60 60 58 58 59 58 56 55 56 55 54 52 52 51 52 54 53 50 48 50 47 48 48 48 49 50 51 51 52 52 52 53
69 68 65 62 66 66 66 66 62 63 63 60 56 56 56 56 59 64 63 62 62 63 64 64 64 65 67 69 68 67 66 66 65 59 61 62 64 63 62 61 60 57 56 57 59 58 57 56 56 56 54 54 54 53 53 53 58 58 58 57 56 52 52 51 50 50 50 49 51 50 47 47 50 49 47 47 49 49 49 50 50 50 51 52 53
68 67 66 65 67 66 64 62 59 61 58 61 55 54 55 55 60 62 63 62 62 64 65 65 65 67 69 67 67 67 65 67 57 57 59 63 63 63 62 60 58 57 56 55 56 64 57 56 55 55 55 55 55 54 54 53 53 54 58 56 54 51 51 51 50 50 47 48 48 47 49 46 48 49 48 48 49 49 47 47 50 52 53 52 52
68 68 66 65 65 64 61 57 62 55 54 63 54 55 54 55 61 64 63 62 63 64 64 64 66 68 69 68 67 66 66 61 55 56 57 61 63 62 61 60 58 57 56 55 55 56 58 59 60 61 61 57 61 62 62 57 56 56 59 59 56 55 52 52 49 45 45 46 48 52 49 47 48 46 46 43 41 43 47 49 52 55 55 55 55